sat.trackr.live / text

‹ back to catalog

STARLINK-5879

NORAD 57153 · 2023-090BE

PAYLOAD ACTIVE UNKNOWN

§ Identity

Operator
Country
US
Launch date
2023-06-23
Launch site
AFETR
Launch vehicle
Mass (kg)
RCS (m²)

Purposes: comms

External: N2YO · Heavens-Above · Gunter

§ Orbital elements

Epoch: 2026-05-25T03:29:39.060672Z

Period
94.27 min
Inclination
43.0028°
Eccentricity
0.0002106
Mean motion
15.27571211 rev/d
Perigee alt
481.6 km
Apogee alt
484.5 km
Semi-major
6,861.2 km
B*
5.4983e-5
RAAN
180.4777°
Arg perigee
308.8794°
Mean anomaly
51.1870°
Rev number
16,186

§ Raw data

STARLINK-58791 57153U 23090BE  26145.14559098  .00001250  00000+0  54983-4 0  99942 57153  43.0028 180.4777 0002106 308.8794  51.1870 15.27571211161868

JSON: /api/v1/satellites/57153 · /tle

For live sub-satellite position, see the globe view (requires WebGL).

§ Visibility from observer

Set your observer location to see the next 7 days of passes ≥ 10°. The values pass through the URL so the page stays shareable.

No JS? Fill the form by hand. The geolocation button needs JavaScript.